This is the latest recevied weather packets stored in our database for station/object N6DZK. If no packets are shown the sender has not sent any weather packets the latest 10 day(s).
| Time | Temp. | Humidity | Pressure | Rain* | Wind** | Luminosity | Snow |
|---|---|---|---|---|---|---|---|
| 1778007045 | 15° C | 69% | 1016.9 hPa | 0 mm | - | 198 W/m² | - |
| 1778006742 | 15° C | 68% | 1016.8 hPa | 0 mm | - | 195 W/m² | - |
| 1778006439 | 15° C | 69% | 1016.8 hPa | 0 mm | - | 177 W/m² | - |
| 1778006136 | 15° C | 68% | 1016.7 hPa | 0 mm | - | 173 W/m² | - |
| 1778005833 | 15° C | 68% | 1016.5 hPa | 0 mm | - | 162 W/m² | - |
| 1778005529 | 15° C | 69% | 1016.7 hPa | 0 mm | - | 134 W/m² | - |
| 1778005227 | 15° C | 67% | 1016.6 hPa | 0 mm | - | 146 W/m² | - |
| 1778004923 | 15° C | 67% | 1016.6 hPa | 0 mm | - | 172 W/m² | - |
| 1778004621 | 15° C | 67% | 1016.6 hPa | 0 mm | - | 195 W/m² | - |
| 1778004316 | 15° C | 68% | 1016.4 hPa | 0 mm | - | 168 W/m² | - |
| 1778004015 | 15° C | 68% | 1016.6 hPa | 0 mm | - | 150 W/m² | - |
| 1778003715 | 15° C | 67% | 1016.3 hPa | 0 mm | - | 170 W/m² | - |
| 1778003412 | 15° C | 68% | 1016.3 hPa | 0 mm | - | 171 W/m² | - |
| 1778003109 | 15° C | 67% | 1016.3 hPa | 0 mm | - | 165 W/m² | - |
| 1778002805 | 15° C | 68% | 1016.3 hPa | 0 mm | - | 197 W/m² | - |
| 1778002501 | 15° C | 67% | 1016.1 hPa | 0 mm | - | 194 W/m² | - |
| 1778002198 | 15° C | 65% | 1016.2 hPa | 0 mm | - | 168 W/m² | - |
| 1778001897 | 15° C | 66% | 1016.1 hPa | 0 mm | - | 196 W/m² | - |
| 1778001597 | 15° C | 67% | 1016.2 hPa | 0 mm | - | 219 W/m² | - |
| 1778001293 | 15° C | 68% | 1016.1 hPa | 0 mm | - | 226 W/m² | - |
| 1778000990 | 15° C | 68% | 1016.1 hPa | 0 mm | - | 208 W/m² | - |
| 1778000686 | 15° C | 70% | 1016.1 hPa | 0 mm | - | 194 W/m² | - |
| 1778000382 | 15° C | 70% | 1016.1 hPa | 0 mm | - | 188 W/m² | - |
| 1778000078 | 14.44° C | 72% | 1016.2 hPa | 0 mm | - | 247 W/m² | - |
| 1777999774 | 14.44° C | 69% | 1016.2 hPa | 0 mm | - | 263 W/m² | - |
* Rain latest hour (hover to see other rain measurements)
** Current wind speed in m/s (hover to see current wind gust speed)